Time,TemperatureF,DewpointF,PressureIn,WindDirection,WindDirectionDegrees,WindSpeedMPH,WindSpeedGustMPH,Humidity,HourlyPrecipIn,Conditions,Clouds,dailyrainin,SolarRadiationWatts/m^2,SoftwareType,DateUTC
2012-01-14 00:24:00,45.0,11.0,-100.00,WSW,247,4.0,7.0,25,0.00,,,0.00,213.000000,,2012-01-14 00:24:00,
2012-01-14 00:34:00,45.0,11.0,-100.00,WSW,247,4.0,7.0,25,0.00,,,0.00,213.000000,,2012-01-14 00:34:00,
2012-01-14 00:44:00,45.0,11.0,-100.00,WSW,247,4.0,7.0,25,0.00,,,0.00,213.000000,,2012-01-14 00:44:00,
2012-01-14 00:53:00,45.0,11.0,-100.00,WSW,247,4.0,7.0,25,0.00,,,0.00,213.000000,,2012-01-14 00:53:00,
2012-01-14 01:24:00,42.0,14.0,-100.00,WSW,243,1.0,6.0,31,0.00,,,0.00,68.000000,,2012-01-14 01:24:00,
2012-01-14 01:35:00,42.0,14.0,-100.00,WSW,243,1.0,6.0,31,0.00,,,0.00,68.000000,,2012-01-14 01:35:00,
2012-01-14 01:44:00,42.0,14.0,-100.00,WSW,243,1.0,6.0,31,0.00,,,0.00,68.000000,,2012-01-14 01:44:00,
2012-01-14 01:53:00,42.0,14.0,-100.00,WSW,243,1.0,6.0,31,0.00,,,0.00,68.000000,,2012-01-14 01:53:00,
2012-01-14 02:24:00,40.0,12.0,-100.00,WNW,286,2.0,3.0,31,0.00,,,0.00,2.000000,,2012-01-14 02:24:00,
2012-01-14 02:35:00,40.0,12.0,-100.00,WNW,286,2.0,3.0,31,0.00,,,0.00,2.000000,,2012-01-14 02:35:00,
2012-01-14 02:44:00,40.0,12.0,-100.00,WNW,286,2.0,3.0,31,0.00,,,0.00,2.000000,,2012-01-14 02:44:00,
2012-01-14 03:24:00,36.0,13.0,-100.00,SW,231,3.0,4.0,39,0.00,,,0.00,1.000000,,2012-01-14 03:24:00,
2012-01-14 03:34:00,36.0,13.0,-100.00,SW,231,3.0,4.0,39,0.00,,,0.00,1.000000,,2012-01-14 03:34:00,
2012-01-14 03:44:00,36.0,13.0,-100.00,SW,231,3.0,4.0,39,0.00,,,0.00,1.000000,,2012-01-14 03:44:00,
2012-01-14 03:53:00,36.0,13.0,-100.00,SW,231,3.0,4.0,39,0.00,,,0.00,1.000000,,2012-01-14 03:53:00,
2012-01-14 04:24:00,35.0,15.0,-100.00,West,270,3.0,4.0,43,0.00,,,0.00,1.000000,,2012-01-14 04:24:00,
2012-01-14 04:34:00,35.0,15.0,-100.00,West,270,3.0,4.0,43,0.00,,,0.00,1.000000,,2012-01-14 04:34:00,
2012-01-14 04:44:00,35.0,15.0,-100.00,West,270,3.0,4.0,43,0.00,,,0.00,1.000000,,2012-01-14 04:44:00,
2012-01-14 04:53:00,35.0,15.0,-100.00,West,270,3.0,4.0,43,0.00,,,0.00,1.000000,,2012-01-14 04:53:00,
2012-01-14 05:24:00,30.0,14.0,-100.00,ESE,112,3.0,4.0,50,0.00,,,0.00,1.000000,,2012-01-14 05:24:00,
2012-01-14 05:35:00,30.0,14.0,-100.00,ESE,112,3.0,4.0,50,0.00,,,0.00,1.000000,,2012-01-14 05:35:00,
2012-01-14 05:44:00,30.0,14.0,-100.00,ESE,112,3.0,4.0,50,0.00,,,0.00,1.000000,,2012-01-14 05:44:00,
2012-01-14 05:53:00,30.0,14.0,-100.00,ESE,112,3.0,4.0,50,0.00,,,0.00,1.000000,,2012-01-14 05:53:00,
2012-01-14 06:23:00,27.0,13.0,-100.00,ENE,78,3.0,4.0,56,0.00,,,0.00,1.000000,,2012-01-14 06:23:00,
2012-01-14 06:34:00,27.0,13.0,-100.00,ENE,78,3.0,4.0,56,0.00,,,0.00,1.000000,,2012-01-14 06:34:00,
2012-01-14 06:44:00,27.0,13.0,-100.00,ENE,78,3.0,4.0,56,0.00,,,0.00,1.000000,,2012-01-14 06:44:00,
2012-01-14 06:53:00,27.0,13.0,-100.00,ENE,78,3.0,4.0,56,0.00,,,0.00,1.000000,,2012-01-14 06:53:00,
2012-01-14 07:24:00,27.0,12.0,-100.00,ENE,76,3.0,4.0,52,0.00,,,0.00,1.000000,,2012-01-14 07:24:00,
2012-01-14 07:35:00,27.0,12.0,-100.00,ENE,76,3.0,4.0,52,0.00,,,0.00,1.000000,,2012-01-14 07:35:00,
2012-01-14 07:44:00,27.0,12.0,-100.00,ENE,76,3.0,4.0,52,0.00,,,0.00,1.000000,,2012-01-14 07:44:00,
2012-01-14 07:53:00,27.0,12.0,-100.00,ENE,76,3.0,4.0,52,0.00,,,0.00,1.000000,,2012-01-14 07:53:00,
2012-01-14 08:23:00,25.0,12.0,-100.00,East,81,3.0,4.0,58,0.00,,,0.00,1.000000,,2012-01-14 08:23:00,
2012-01-14 08:34:00,25.0,12.0,-100.00,East,81,3.0,4.0,58,0.00,,,0.00,1.000000,,2012-01-14 08:34:00,
2012-01-14 08:44:00,25.0,12.0,-100.00,East,81,3.0,4.0,58,0.00,,,0.00,1.000000,,2012-01-14 08:44:00,
2012-01-14 08:53:00,25.0,12.0,-100.00,East,81,3.0,4.0,58,0.00,,,0.00,1.000000,,2012-01-14 08:53:00,
2012-01-14 09:23:00,23.0,12.0,-100.00,ENE,71,3.0,4.0,62,0.00,,,-99.99,1.000000,,2012-01-14 09:23:00,
2012-01-14 09:34:00,23.0,12.0,-100.00,ENE,71,3.0,4.0,62,0.00,,,-99.99,1.000000,,2012-01-14 09:34:00,
2012-01-14 09:43:00,23.0,12.0,-100.00,ENE,71,3.0,4.0,62,0.00,,,-99.99,1.000000,,2012-01-14 09:43:00,
2012-01-14 09:53:00,23.0,12.0,-100.00,ENE,71,3.0,4.0,62,0.00,,,-99.99,1.000000,,2012-01-14 09:53:00,
2012-01-14 10:24:00,24.0,12.0,-100.00,East,90,3.0,5.0,60,0.00,,,0.00,1.000000,,2012-01-14 10:24:00,
2012-01-14 10:35:00,24.0,12.0,-100.00,East,90,3.0,5.0,60,0.00,,,0.00,1.000000,,2012-01-14 10:35:00,
2012-01-14 10:44:00,24.0,12.0,-100.00,East,90,3.0,5.0,60,0.00,,,0.00,1.000000,,2012-01-14 10:44:00,
2012-01-14 10:53:00,24.0,12.0,-100.00,East,90,3.0,5.0,60,0.00,,,0.00,1.000000,,2012-01-14 10:53:00,
2012-01-14 11:23:00,24.0,12.0,-100.00,East,97,2.0,4.0,60,0.00,,,0.00,1.000000,,2012-01-14 11:23:00,
2012-01-14 11:35:00,24.0,12.0,-100.00,East,97,2.0,4.0,60,0.00,,,0.00,1.000000,,2012-01-14 11:35:00,
2012-01-14 11:44:00,24.0,12.0,-100.00,East,97,2.0,4.0,60,0.00,,,0.00,1.000000,,2012-01-14 11:44:00,
2012-01-14 11:53:00,24.0,12.0,-100.00,East,97,2.0,4.0,60,0.00,,,0.00,1.000000,,2012-01-14 11:53:00,
2012-01-14 12:24:00,20.0,11.0,-100.00,East,85,2.0,4.0,68,0.00,,,-99.99,1.000000,,2012-01-14 12:24:00,
2012-01-14 12:35:00,20.0,11.0,-100.00,East,85,2.0,4.0,68,0.00,,,-99.99,1.000000,,2012-01-14 12:35:00,
2012-01-14 12:44:00,20.0,11.0,-100.00,East,85,2.0,4.0,68,0.00,,,-99.99,1.000000,,2012-01-14 12:44:00,
2012-01-14 12:53:00,20.0,11.0,-100.00,East,85,2.0,4.0,68,0.00,,,-99.99,1.000000,,2012-01-14 12:53:00,
2012-01-14 13:23:00,20.0,11.0,-100.00,East,87,4.0,6.0,69,0.00,,,-99.99,1.000000,,2012-01-14 13:23:00,
2012-01-14 13:35:00,20.0,11.0,-100.00,East,87,4.0,6.0,69,0.00,,,-99.99,1.000000,,2012-01-14 13:35:00,
2012-01-14 13:44:00,20.0,11.0,-100.00,East,87,4.0,6.0,69,0.00,,,-99.99,1.000000,,2012-01-14 13:44:00,
2012-01-14 13:53:00,20.0,11.0,-100.00,East,87,4.0,6.0,69,0.00,,,-99.99,1.000000,,2012-01-14 13:53:00,
2012-01-14 14:24:00,21.0,11.0,-100.00,ENE,67,4.0,7.0,66,-99.99,,,0.00,1.000000,,2012-01-14 14:24:00,
2012-01-14 14:35:00,21.0,11.0,-100.00,ENE,67,4.0,7.0,66,-99.99,,,0.00,1.000000,,2012-01-14 14:35:00,
2012-01-14 14:44:00,21.0,11.0,-100.00,ENE,67,4.0,7.0,66,-99.99,,,0.00,1.000000,,2012-01-14 14:44:00,
2012-01-14 14:53:00,21.0,11.0,-100.00,ENE,67,4.0,7.0,66,-99.99,,,0.00,1.000000,,2012-01-14 14:53:00,
2012-01-14 15:24:00,21.0,11.0,-100.00,East,87,2.0,6.0,66,0.00,,,-99.99,1.000000,,2012-01-14 15:24:00,
2012-01-14 15:35:00,21.0,11.0,-100.00,East,87,2.0,6.0,66,0.00,,,-99.99,1.000000,,2012-01-14 15:35:00,
2012-01-14 15:44:00,21.0,11.0,-100.00,East,87,2.0,6.0,66,0.00,,,-99.99,1.000000,,2012-01-14 15:44:00,
2012-01-14 15:53:00,21.0,11.0,-100.00,East,87,2.0,6.0,66,0.00,,,-99.99,1.000000,,2012-01-14 15:53:00,
2012-01-14 16:24:00,26.0,18.0,-100.00,South,185,3.0,4.0,70,0.00,,,0.00,6.000000,,2012-01-14 16:24:00,
2012-01-14 16:34:00,26.0,18.0,-100.00,South,185,3.0,4.0,70,0.00,,,0.00,6.000000,,2012-01-14 16:34:00,
2012-01-14 16:44:00,26.0,18.0,-100.00,South,185,3.0,4.0,70,0.00,,,0.00,6.000000,,2012-01-14 16:44:00,
2012-01-14 16:53:00,26.0,18.0,-100.00,South,185,3.0,4.0,70,0.00,,,0.00,6.000000,,2012-01-14 16:53:00,
2012-01-14 17:24:00,25.0,14.0,-100.00,SSE,152,2.0,5.0,63,0.00,,,0.00,49.000000,,2012-01-14 17:24:00,
2012-01-14 17:35:00,25.0,14.0,-100.00,SSE,152,2.0,5.0,63,0.00,,,0.00,49.000000,,2012-01-14 17:35:00,
2012-01-14 17:44:00,25.0,14.0,-100.00,SSE,152,2.0,5.0,63,0.00,,,0.00,49.000000,,2012-01-14 17:44:00,
2012-01-14 18:24:00,36.0,20.0,-100.00,SSW,210,4.0,6.0,52,-99.99,,,0.00,132.000000,,2012-01-14 18:24:00,
2012-01-14 18:35:00,36.0,20.0,-100.00,SSW,210,4.0,6.0,52,-99.99,,,0.00,132.000000,,2012-01-14 18:35:00,
2012-01-14 18:44:00,36.0,20.0,-100.00,SSW,210,4.0,6.0,52,-99.99,,,0.00,132.000000,,2012-01-14 18:44:00,
2012-01-14 18:53:00,36.0,20.0,-100.00,SSW,210,4.0,6.0,52,-99.99,,,0.00,132.000000,,2012-01-14 18:53:00,
2012-01-14 19:24:00,47.0,15.0,-100.00,SSW,200,8.0,13.0,27,-99.99,,,0.00,95.000000,,2012-01-14 19:24:00,
2012-01-14 19:35:00,47.0,15.0,-100.00,SSW,200,8.0,13.0,27,-99.99,,,0.00,95.000000,,2012-01-14 19:35:00,
2012-01-14 19:44:00,47.0,15.0,-100.00,SSW,200,8.0,13.0,27,-99.99,,,0.00,95.000000,,2012-01-14 19:44:00,
2012-01-14 19:53:00,47.0,15.0,-100.00,SSW,200,8.0,13.0,27,-99.99,,,0.00,95.000000,,2012-01-14 19:53:00,
2012-01-14 20:24:00,51.0,14.0,-100.00,SSW,209,9.0,16.0,22,0.00,,,0.00,442.000000,,2012-01-14 20:24:00,
2012-01-14 20:35:00,51.0,14.0,-100.00,SSW,209,9.0,16.0,22,0.00,,,0.00,442.000000,,2012-01-14 20:35:00,
2012-01-14 20:44:00,51.0,14.0,-100.00,SSW,209,9.0,16.0,22,0.00,,,0.00,442.000000,,2012-01-14 20:44:00,
2012-01-14 20:53:00,51.0,14.0,-100.00,SSW,209,9.0,16.0,22,0.00,,,0.00,442.000000,,2012-01-14 20:53:00,
2012-01-14 21:24:00,51.0,8.0,-100.00,WSW,247,13.0,19.0,17,0.00,,,0.00,402.000000,,2012-01-14 21:24:00,
2012-01-14 21:44:00,51.0,8.0,-100.00,WSW,247,13.0,19.0,17,0.00,,,0.00,402.000000,,2012-01-14 21:44:00,
2012-01-14 21:53:00,51.0,8.0,-100.00,WSW,247,13.0,19.0,17,0.00,,,0.00,402.000000,,2012-01-14 21:53:00,
2012-01-14 22:24:00,49.0,7.0,-100.00,WSW,238,12.0,23.0,18,0.00,,,0.00,210.000000,,2012-01-14 22:24:00,
2012-01-14 22:36:00,49.0,7.0,-100.00,WSW,238,12.0,23.0,18,0.00,,,0.00,210.000000,,2012-01-14 22:36:00,
2012-01-14 22:44:00,49.0,7.0,-100.00,WSW,238,12.0,23.0,18,0.00,,,0.00,210.000000,,2012-01-14 22:44:00,
2012-01-14 22:53:00,49.0,7.0,-100.00,WSW,238,12.0,23.0,18,0.00,,,0.00,210.000000,,2012-01-14 22:53:00,
2012-01-14 23:24:00,48.0,10.0,-100.00,WSW,252,13.0,22.0,21,0.00,,,0.00,142.000000,,2012-01-14 23:24:00,
2012-01-14 23:35:00,48.0,10.0,-100.00,WSW,252,13.0,22.0,21,0.00,,,0.00,142.000000,,2012-01-14 23:35:00,
2012-01-14 23:44:00,48.0,10.0,-100.00,WSW,252,13.0,22.0,21,0.00,,,0.00,142.000000,,2012-01-14 23:44:00,
2012-01-14 23:53:00,48.0,10.0,-100.00,WSW,252,13.0,22.0,21,0.00,,,0.00,142.000000,,2012-01-14 23:53:00,